Вернуться в каталог

STARLINK-36038

АктивенСвязьVLEO
NORAD 66804·PAYLOAD·🇺🇸 United States

Запущен Dec 1, 2025 с Cape Canaveral Space Force Station

Loading…

Ближайшие Пролёты (ближайшие 24 часа)

TLE

СвежийSource: CelesTrak SupGP

Эпоха: Sep 15, 2026, 02:34 UTC

1 66804C 25278P   26258.10743056  .00065051  00000+0  23557-2 0  2585
2 66804  42.9994 124.4621 0001493 272.2812 323.0217 15.27551871    15

Отслеживайте STARLINK-36038 в реальном времени с AllMySat

Download on the App Store